This is the latest recevied weather packets stored in our database for station/object DK0KTL-4. If no packets are shown the sender has not sent any weather packets the latest 10 day(s).
| Time | Temp. | Humidity | Pressure | Rain* | Wind** | Luminosity | Snow |
|---|---|---|---|---|---|---|---|
| 1777824200 | 25° C | 40% | 1009.7 hPa | 0 mm | - | - | - |
| 1777821798 | 26.11° C | 40% | 1009.7 hPa | 0 mm | - | - | - |
| 1777820597 | 26.67° C | 27% | 1009.9 hPa | 0 mm | - | - | - |
| 1777819996 | 27.22° C | 28% | 1009.9 hPa | 0 mm | - | - | - |
| 1777818795 | 28.33° C | 26% | 1009.9 hPa | 0 mm | - | - | - |
| 1777818194 | 27.78° C | 32% | 1010 hPa | 0 mm | - | - | - |
| 1777817594 | 27.22° C | 28% | 1010.3 hPa | 0 mm | - | - | - |
| 1777816393 | 27.22° C | 27% | 1010.4 hPa | 0 mm | - | - | - |
| 1777815192 | 27.22° C | 26% | 1010.7 hPa | 0 mm | - | - | - |
| 1777814591 | 27.78° C | 28% | 1010.8 hPa | 0 mm | - | - | - |
| 1777812789 | 27.78° C | 30% | 1011.1 hPa | 0 mm | - | - | - |
| 1777811888 | 28.33° C | 30% | 1011.4 hPa | 0 mm | - | - | - |
| 1777811588 | 28.33° C | 30% | 1011.3 hPa | 0 mm | - | - | - |
| 1777810988 | 27.78° C | 29% | 1011.3 hPa | 0 mm | - | - | - |
| 1777810687 | 27.78° C | 28% | 1011.4 hPa | 0 mm | - | - | - |
| 1777808585 | 27.78° C | 32% | 1011.8 hPa | 0 mm | - | - | - |
| 1777808285 | 27.78° C | 30% | 1011.9 hPa | 0 mm | - | - | - |
| 1777807084 | 27.22° C | 30% | 1012 hPa | 0 mm | - | - | - |
| 1777806483 | 26.67° C | 32% | 1012.1 hPa | 0 mm | - | - | - |
| 1777805282 | 26.11° C | 31% | 1012.3 hPa | 0 mm | - | - | - |
| 1777804681 | 26.11° C | 32% | 1012.4 hPa | 0 mm | - | - | - |
| 1777804381 | 26.11° C | 30% | 1012.5 hPa | 0 mm | - | - | - |
| 1777804081 | 26.67° C | 35% | 1012.5 hPa | 0 mm | - | - | - |
| 1777803781 | 26.11° C | 30% | 1012.5 hPa | 0 mm | - | - | - |
| 1777803480 | 26.11° C | 31% | 1012.6 hPa | 0 mm | - | - | - |
* Rain latest hour (hover to see other rain measurements)
** Current wind speed in m/s (hover to see current wind gust speed)